AEHF-4 (USA 288)

Last updated on Sun Jun 21 2026 00:03:07 GMT+0000 (Coordinated Universal Time)

1 43651U 18079A 26171.37855042 -.00000280 00000+0 00000+0 0 9994 2 43651 1.4333 4.2858 0060337 355.9946 337.0743 1.00271719 28322
UTC large
Height (km)
Speed (km/s)
/
Latitude / Longitude
Inclination (degrees)
Orbital Period (minutes)
Azimuth
Elevation
Range (km)
Doppler Factor

Next 0 passes for location: London (51.5072 / 0.1276)

No passes found over London.
AEHF-4 (USA 288)